EW9311 Weather Reports


Display with metric or nautical units.
time (UTC)temp
F
wind
direction
speed
MPH
gust
MPH
rain 1hr
in
rain 24hr
in
rain mn
in
humidity
%
barometer
mb
20260504221529 41 0 0.0 5.0 0.00 0.48 0.25 98 1013.3
20260504220039 41 0 0.0 0.0 0.00 0.48 0.25 98 1013.7
20260504214536 41 0 0.0 0.0 0.00 0.48 0.25 97 1013.9
20260504213028 41 0 0.0 0.0 0.00 0.48 0.25 98 1013.6
20260504211534 41 0 0.0 0.0 0.00 0.48 0.25 98 1013.6
20260504210030 41 0 0.0 0.0 0.00 0.48 0.25 97 1014.1
20260504204530 41 0 0.0 3.0 0.00 0.48 0.25 97 1014.3
20260504203029 40 0 0.0 0.0 0.00 0.48 0.25 97 1014.6
20260504201532 40 0 0.0 0.0 0.00 0.48 0.25 97 1015.1
20260504200030 40 0 0.0 5.0 0.00 0.48 0.25 98 1015.7
20260504194527 40 0 0.0 0.0 0.00 0.48 0.25 98 1015.9
20260504193029 40 0 0.0 0.0 0.00 0.48 0.25 97 1016.3
20260504191530 40 0 0.0 0.0 0.00 0.48 0.25 98 1016.3
20260504190028 40 0 0.0 5.0 0.00 0.48 0.25 97 1016.3
20260504184533 40 0 0.0 0.0 0.01 0.48 0.25 97 1016.2
20260504183030 40 0 0.0 5.0 0.02 0.48 0.25 97 1016.5
20260504181536 39 0 0.0 1.0 0.03 0.48 0.25 97 1016.5
20260504180030 39 0 0.0 4.0 0.04 0.48 0.25 97 1016.7
20260504174530 39 0 0.0 1.0 0.03 0.47 0.24 97 1017.1
20260504173031 39 0 0.0 0.0 0.03 0.46 0.23 97 1017.1
20260504171532 39 0 0.0 0.0 0.02 0.45 0.22 97 1017.3
20260504081535 39 0 0.0 0.0 0.02 0.23 0.00 95 1020.3
20260504044527 41 0 0.0 0.0 0.04 0.15 0.15 94 1020.4
20260504043030 41 0 0.0 0.0 0.04 0.14 0.14 93 1020.5
20260504041531 41 0 0.0 0.0 0.05 0.14 0.14 93 1020.4
20260504040031 42 0 0.0 0.0 0.05 0.12 0.12 93 1020.3
20260504034534 42 0 0.0 0.0 0.05 0.11 0.11 92 1020.6
20260504033044 43 0 0.0 0.0 0.06 0.10 0.10 92 1020.7
20260504031531 43 0 0.0 0.0 0.06 0.09 0.09 91 1020.7
20260504030031 44 0 0.0 0.0 0.04 0.07 0.07 89 1020.8
20260504024541 44 0 0.0 0.0 0.04 0.06 0.06 89 1020.9
20260504023030 44 0 0.0 0.0 0.02 0.04 0.04 86 1020.9
20260504021530 44 0 0.0 0.0 0.02 0.03 0.03 86 1020.9
20260504020030 44 0 0.0 0.0 0.03 0.03 0.03 84 1021.0
20260504014530 45 0 0.0 0.0 0.02 0.02 0.02 83 1021.0
20260504013030 45 0 0.0 0.0 0.02 0.02 0.02 77 1021.1
20260504011530 45 0 0.0 0.0 0.01 0.01 0.01 79 1021.2
20260504010030 46 0 0.0 5.0 0.00 0.00 0.00 73 1021.2
20260504004541 48 0 0.0 3.0 0.00 0.00 0.00 66 1021.2
20260504003030 49 0 0.0 0.0 0.00 0.00 0.00 61 1021.3
20260504001529 49 0 0.0 0.0 0.00 0.00 0.00 62 1021.1
20260504000029 49 0 0.0 5.0 0.00 0.00 0.00 59 1021.2
20260503234530 49 0 0.0 5.0 0.00 0.00 0.00 59 1021.1
20260503233032 49 0 0.0 6.0 0.00 0.00 0.00 60 1021.3
20260503231527 49 0 0.0 7.0 0.00 0.00 0.00 60 1021.5
20260503230030 49 0 0.0 1.0 0.00 0.00 0.00 62 1021.4
20260503224531 48 341 0.0 3.0 0.00 0.00 0.00 63 1021.6
20260503223030 48 0 0.0 0.0 0.00 0.00 0.00 64 1021.8